QPF
0.01 0.00 0.00 0.00 0.00 0.00 0.00 0.00 0.00 0.00 0.00 0.00 0.00 0.01 0.02 0.02 0.01 0.01 0.01 0.01 0.01 0.02 0.03 0.04 0.05 0.06 0.05 0.05 0.05 0.06 0.07 0.08 0.09 0.11 0.10 0.10 0.10 0.09 0.07 0.05 0.04 0.03 0.02
0.01 0.01 0.00 0.00 0.00 0.00 0.00 0.00 0.00 0.00 0.00 0.00 0.01 0.01 0.01 0.03 0.02 0.01 0.02 0.02 0.02 0.02 0.03 0.04 0.04 0.05 0.05 0.05 0.05 0.06 0.06 0.06 0.07 0.10 0.10 0.09 0.08 0.07 0.06 0.06 0.04 0.03 0.03
0.01 0.01 0.00 0.00 0.00 0.00 0.00 0.00 0.00 0.00 0.00 0.01 0.01 0.02 0.02 0.02 0.02 0.02 0.02 0.01 0.01 0.01 0.02 0.02 0.03 0.04 0.04 0.05 0.05 0.05 0.06 0.06 0.06 0.07 0.11 0.11 0.08 0.06 0.05 0.06 0.05 0.04 0.03
0.00 0.00 0.00 0.00 0.00 0.00 0.00 0.00 0.00 0.00 0.00 0.00 0.00 0.01 0.03 0.03 0.03 0.02 0.02 0.01 0.01 0.01 0.01 0.01 0.02 0.02 0.03 0.04 0.04 0.04 0.04 0.05 0.05 0.05 0.05 0.08 0.10 0.09 0.07 0.05 0.05 0.05 0.04
0.00 0.00 0.00 0.00 0.00 0.00 0.00 0.00 0.00 0.00 0.00 0.00 0.00 0.00 0.00 0.01 0.02 0.03 0.02 0.01 0.01 0.01 0.01 0.01 0.02 0.02 0.02 0.03 0.04 0.04 0.04 0.04 0.04 0.05 0.05 0.07 0.08 0.09 0.10 0.08 0.05 0.05 0.05
0.01 0.00 0.00 0.00 0.00 0.00 0.00 0.00 0.00 0.00 0.00 0.00 0.01 0.01 0.01 0.01 0.01 0.01 0.02 0.02 0.01 0.01 0.01 0.01 0.01 0.01 0.02 0.02 0.03 0.04 0.05 0.05 0.05 0.05 0.05 0.06 0.07 0.08 0.08 0.07 0.07 0.06 0.05
0.01 0.00 0.00 0.00 0.00 0.00 0.00 0.00 0.00 0.00 0.00 0.00 0.00 0.00 0.00 0.01 0.02 0.02 0.01 0.01 0.01 0.01 0.00 0.00 0.01 0.01 0.01 0.02 0.02 0.03 0.04 0.04 0.04 0.04 0.04 0.05 0.05 0.07 0.08 0.08 0.07 0.06 0.05
0.00 0.00 0.00 0.00 0.00 0.00 0.00 0.00 0.00 0.00 0.00 0.00 0.00 0.00 0.00 0.01 0.01 0.01 0.01 0.01 0.01 0.01 0.00 0.00 0.00 0.00 0.01 0.02 0.02 0.02 0.02 0.02 0.02 0.02 0.02 0.03 0.03 0.04 0.05 0.06 0.08 0.09 0.07
0.00 0.00 0.00 0.00 0.00 0.00 0.00 0.00 0.00 0.00 0.00 0.00 0.01 0.01 0.01 0.01 0.01 0.01 0.01 0.01 0.01 0.01 0.01 0.01 0.00 0.00 0.01 0.02 0.02 0.02 0.01 0.01 0.02 0.01 0.02 0.02 0.02 0.02 0.03 0.03 0.05 0.07 0.07
0.00 0.00 0.00 0.00 0.00 0.00 0.00 0.00 0.00 0.00 0.00 0.00 0.01 0.01 0.01 0.01 0.01 0.01 0.01 0.01 0.01 0.02 0.02 0.01 0.01 0.01 0.01 0.01 0.02 0.03 0.02 0.02 0.02 0.01 0.01 0.02 0.01 0.02 0.02 0.03 0.03 0.05 0.05
0.00 0.00 0.00 0.00 0.00 0.00 0.00 0.00 0.00 0.00 0.00 0.00 0.00 0.00 0.01 0.01 0.01 0.01 0.01 0.00 0.01 0.01 0.02 0.01 0.01 0.01 0.01 0.02 0.02 0.03 0.03 0.02 0.02 0.02 0.02 0.02 0.02 0.02 0.02 0.03 0.03 0.04 0.05
0.00 0.00 0.00 0.00 0.00 0.00 0.00 0.00 0.00 0.00 0.00 0.00 0.00 0.00 0.00 0.01 0.01 0.01 0.01 0.01 0.01 0.01 0.02 0.02 0.02 0.02 0.02 0.03 0.03 0.03 0.03 0.03 0.02 0.03 0.02 0.02 0.02 0.02 0.02 0.02 0.03 0.03 0.04
0.00 0.00 0.00 0.00 0.00 0.00 0.00 0.00 0.00 0.00 0.00 0.00 0.00 0.00 0.00 0.00 0.01 0.01 0.01 0.01 0.01 0.01 0.01 0.02 0.02 0.02 0.03 0.03 0.04 0.03 0.03 0.03 0.02 0.03 0.03 0.03 0.03 0.03 0.03 0.03 0.03 0.04 0.04
0.00 0.00 0.00 0.00 0.00 0.00 0.00 0.00 0.00 0.00 0.00 0.00 0.00 0.00 0.00 0.00 0.01 0.01 0.01 0.01 0.01 0.01 0.01 0.01 0.01 0.02 0.03 0.03 0.04 0.04 0.03 0.02 0.02 0.03 0.03 0.04 0.04 0.04 0.05 0.05 0.04 0.04 0.05
0.00 0.00 0.00 0.00 0.00 0.00 0.00 0.00 0.00 0.00 0.00 0.00 0.00 0.00 0.00 0.00 0.01 0.02 0.01 0.01 0.01 0.01 0.01 0.00 0.01 0.02 0.02 0.03 0.04 0.05 0.04 0.03 0.03 0.03 0.04 0.04 0.05 0.05 0.04 0.04 0.04 0.04 0.04
0.00 0.00 0.00 0.00 0.00 0.00 0.00 0.00 0.00 0.00 0.00 0.00 0.00 0.00 0.00 0.01 0.02 0.02 0.01 0.01 0.01 0.01 0.01 0.01 0.01 0.01 0.02 0.03 0.03 0.05 0.05 0.04 0.03 0.03 0.03 0.04 0.04 0.04 0.04 0.04 0.04 0.04 0.04
0.00 0.00 0.00 0.00 0.00 0.00 0.00 0.00 0.00 0.00 0.00 0.00 0.00 0.00 0.00 0.01 0.02 0.02 0.01 0.01 0.01 0.01 0.02 0.01 0.02 0.02 0.02 0.02 0.02 0.03 0.04 0.03 0.03 0.03 0.04 0.03 0.04 0.04 0.03 0.03 0.03 0.03 0.03
0.00 0.00 0.00 0.00 0.00 0.00 0.00 0.00 0.00 0.00 0.00 0.00 0.00 0.00 0.01 0.01 0.02 0.03 0.02 0.01 0.01 0.01 0.01 0.01 0.02 0.03 0.02 0.02 0.02 0.03 0.02 0.03 0.03 0.04 0.04 0.04 0.03 0.03 0.03 0.03 0.03 0.03 0.04
0.00 0.00 0.00 0.00 0.00 0.00 0.00 0.00 0.00 0.00 0.00 0.00 0.00 0.00 0.01 0.02 0.03 0.04 0.02 0.01 0.01 0.01 0.01 0.02 0.02 0.03 0.03 0.02 0.02 0.02 0.03 0.03 0.03 0.03 0.03 0.03 0.02 0.03 0.03 0.03 0.04 0.05 0.05
0.00 0.00 0.00 0.00 0.00 0.00 0.00 0.00 0.00 0.00 0.00 0.00 0.00 0.01 0.01 0.02 0.03 0.04 0.03 0.02 0.01 0.01 0.01 0.02 0.03 0.03 0.03 0.03 0.02 0.02 0.02 0.03 0.03 0.03 0.03 0.03 0.02 0.02 0.02 0.02 0.02 0.03 0.03
0.00 0.00 0.00 0.00 0.00 0.00 0.00 0.00 0.00 0.00 0.00 0.00 0.00 0.01 0.02 0.02 0.03 0.04 0.04 0.02 0.01 0.01 0.01 0.02 0.03 0.03 0.04 0.04 0.03 0.02 0.02 0.02 0.03 0.04 0.03 0.03 0.03 0.03 0.03 0.03 0.03 0.03 0.03
0.00 0.00 0.00 0.00 0.00 0.00 0.00 0.00 0.00 0.00 0.00 0.00 0.00 0.01 0.02 0.02 0.03 0.03 0.04 0.03 0.01 0.01 0.01 0.01 0.03 0.03 0.03 0.03 0.04 0.03 0.03 0.02 0.03 0.03 0.03 0.03 0.04 0.04 0.04 0.04 0.05 0.05 0.04
0.00 0.00 0.00 0.00 0.00 0.00 0.00 0.00 0.00 0.00 0.00 0.00 0.01 0.01 0.02 0.03 0.03 0.03 0.04 0.03 0.01 0.01 0.01 0.01 0.01 0.02 0.02 0.03 0.03 0.03 0.03 0.03 0.03 0.03 0.03 0.03 0.04 0.04 0.03 0.04 0.05 0.04 0.04
0.00 0.00 0.00 0.00 0.00 0.00 0.00 0.00 0.00 0.00 0.00 0.00 0.01 0.01 0.02 0.03 0.03 0.03 0.03 0.03 0.02 0.01 0.01 0.01 0.01 0.01 0.01 0.01 0.02 0.02 0.02 0.02 0.02 0.02 0.02 0.02 0.03 0.03 0.03 0.04 0.04 0.04 0.05
0.00 0.00 0.00 0.00 0.00 0.00 0.00 0.00 0.00 0.00 0.00 0.00 0.01 0.01 0.02 0.02 0.03 0.03 0.03 0.02 0.02 0.02 0.01 0.01 0.01 0.01 0.01 0.01 0.02 0.02 0.01 0.02 0.02 0.02 0.02 0.02 0.02 0.03 0.03 0.03 0.04 0.04 0.04
0.00 0.00 0.00 0.00 0.00 0.00 0.00 0.00 0.00 0.00 0.00 0.01 0.01 0.01 0.01 0.02 0.02 0.02 0.02 0.02 0.02 0.01 0.01 0.01 0.01 0.01 0.01 0.01 0.01 0.01 0.01 0.02 0.02 0.02 0.02 0.03 0.03 0.03 0.03 0.03 0.03 0.04 0.04
MSLP
1016.22 1016.65 1017.05 1017.41 1017.72 1017.96 1018.15 1018.28 1018.38 1018.45 1018.50 1018.54 1018.57 1018.58 1018.58 1018.54 1018.47 1018.37 1018.25 1018.11 1017.97 1017.84 1017.73 1017.64 1017.57 1017.51 1017.44 1017.34 1017.21 1017.02 1016.76 1016.45 1016.07 1015.64 1015.18 1014.70 1014.23 1013.78 1013.37 1013.02 1012.75 1012.57 1012.48
1016.06 1016.49 1016.90 1017.26 1017.57 1017.82 1018.03 1018.21 1018.37 1018.52 1018.66 1018.78 1018.87 1018.91 1018.90 1018.83 1018.70 1018.53 1018.33 1018.14 1017.97 1017.83 1017.74 1017.69 1017.68 1017.66 1017.64 1017.57 1017.44 1017.25 1016.98 1016.65 1016.25 1015.81 1015.34 1014.84 1014.34 1013.85 1013.39 1012.96 1012.60 1012.31 1012.12
1015.67 1016.14 1016.58 1016.98 1017.31 1017.60 1017.85 1018.08 1018.30 1018.52 1018.73 1018.92 1019.05 1019.13 1019.12 1019.02 1018.86 1018.64 1018.40 1018.17 1017.98 1017.85 1017.78 1017.77 1017.79 1017.81 1017.80 1017.74 1017.62 1017.41 1017.13 1016.79 1016.39 1015.96 1015.49 1015.02 1014.53 1014.03 1013.55 1013.08 1012.65 1012.28 1011.99
1015.11 1015.65 1016.16 1016.61 1017.00 1017.33 1017.62 1017.89 1018.16 1018.43 1018.69 1018.92 1019.10 1019.19 1019.20 1019.10 1018.92 1018.69 1018.44 1018.21 1018.02 1017.91 1017.86 1017.87 1017.90 1017.93 1017.92 1017.85 1017.69 1017.47 1017.16 1016.81 1016.42 1016.01 1015.59 1015.15 1014.71 1014.25 1013.77 1013.30 1012.84 1012.41 1012.04
1014.48 1015.11 1015.70 1016.23 1016.68 1017.07 1017.39 1017.69 1017.98 1018.27 1018.55 1018.80 1018.99 1019.11 1019.13 1019.06 1018.90 1018.68 1018.45 1018.24 1018.08 1017.98 1017.95 1017.97 1017.99 1018.00 1017.96 1017.84 1017.65 1017.38 1017.05 1016.69 1016.31 1015.93 1015.55 1015.18 1014.80 1014.40 1013.97 1013.51 1013.05 1012.59 1012.16
1013.88 1014.60 1015.29 1015.91 1016.43 1016.85 1017.20 1017.51 1017.79 1018.07 1018.33 1018.58 1018.78 1018.91 1018.96 1018.91 1018.79 1018.62 1018.44 1018.27 1018.14 1018.06 1018.04 1018.04 1018.04 1018.00 1017.90 1017.72 1017.47 1017.14 1016.78 1016.40 1016.02 1015.67 1015.35 1015.04 1014.73 1014.40 1014.03 1013.61 1013.17 1012.70 1012.24
1013.39 1014.20 1014.98 1015.67 1016.25 1016.71 1017.07 1017.36 1017.61 1017.85 1018.09 1018.31 1018.50 1018.63 1018.71 1018.70 1018.64 1018.53 1018.40 1018.28 1018.18 1018.12 1018.09 1018.06 1018.01 1017.91 1017.74 1017.48 1017.15 1016.77 1016.36 1015.95 1015.58 1015.25 1014.96 1014.71 1014.46 1014.19 1013.89 1013.53 1013.11 1012.66 1012.19
1013.07 1013.94 1014.77 1015.52 1016.13 1016.61 1016.97 1017.24 1017.46 1017.65 1017.84 1018.03 1018.20 1018.34 1018.43 1018.47 1018.46 1018.41 1018.34 1018.26 1018.20 1018.14 1018.09 1018.02 1017.91 1017.74 1017.48 1017.15 1016.74 1016.30 1015.84 1015.41 1015.02 1014.70 1014.44 1014.22 1014.02 1013.81 1013.55 1013.24 1012.88 1012.45 1012.01
1012.90 1013.77 1014.63 1015.40 1016.03 1016.51 1016.87 1017.12 1017.30 1017.46 1017.61 1017.77 1017.92 1018.06 1018.17 1018.24 1018.28 1018.28 1018.25 1018.21 1018.16 1018.11 1018.03 1017.91 1017.74 1017.49 1017.17 1016.76 1016.30 1015.80 1015.31 1014.85 1014.46 1014.13 1013.88 1013.68 1013.50 1013.32 1013.11 1012.84 1012.51 1012.13 1011.72
1012.79 1013.63 1014.46 1015.21 1015.84 1016.33 1016.68 1016.92 1017.10 1017.24 1017.38 1017.52 1017.66 1017.80 1017.93 1018.03 1018.10 1018.13 1018.14 1018.12 1018.09 1018.02 1017.92 1017.76 1017.53 1017.23 1016.85 1016.40 1015.89 1015.37 1014.86 1014.39 1013.99 1013.66 1013.41 1013.21 1013.04 1012.87 1012.67 1012.44 1012.15 1011.82 1011.45
1012.64 1013.39 1014.16 1014.87 1015.47 1015.96 1016.32 1016.59 1016.79 1016.95 1017.10 1017.26 1017.41 1017.57 1017.71 1017.83 1017.92 1017.98 1018.01 1018.00 1017.97 1017.89 1017.77 1017.58 1017.33 1017.00 1016.59 1016.13 1015.62 1015.10 1014.59 1014.13 1013.73 1013.41 1013.15 1012.94 1012.77 1012.60 1012.41 1012.19 1011.94 1011.65 1011.34
1012.36 1012.98 1013.65 1014.29 1014.86 1015.35 1015.75 1016.06 1016.32 1016.55 1016.75 1016.95 1017.14 1017.33 1017.49 1017.63 1017.73 1017.81 1017.85 1017.85 1017.82 1017.74 1017.61 1017.42 1017.17 1016.84 1016.45 1016.00 1015.52 1015.03 1014.56 1014.13 1013.76 1013.45 1013.19 1012.98 1012.80 1012.62 1012.44 1012.23 1012.00 1011.75 1011.49
1011.89 1012.37 1012.90 1013.46 1014.00 1014.50 1014.95 1015.35 1015.70 1016.02 1016.31 1016.58 1016.83 1017.05 1017.25 1017.40 1017.52 1017.61 1017.66 1017.68 1017.65 1017.59 1017.48 1017.31 1017.08 1016.78 1016.43 1016.03 1015.61 1015.18 1014.77 1014.40 1014.07 1013.79 1013.55 1013.35 1013.16 1012.98 1012.79 1012.60 1012.39 1012.17 1011.95
1011.26 1011.57 1011.98 1012.45 1012.96 1013.47 1013.98 1014.48 1014.94 1015.38 1015.78 1016.15 1016.47 1016.74 1016.97 1017.15 1017.29 1017.39 1017.45 1017.49 1017.49 1017.46 1017.38 1017.25 1017.06 1016.82 1016.53 1016.21 1015.86 1015.51 1015.18 1014.87 1014.60 1014.37 1014.17 1013.98 1013.81 1013.63 1013.45 1013.26 1013.06 1012.87 1012.69
1010.55 1010.71 1010.99 1011.37 1011.84 1012.38 1012.95 1013.54 1014.13 1014.69 1015.21 1015.67 1016.06 1016.39 1016.66 1016.86 1017.02 1017.14 1017.24 1017.30 1017.34 1017.35 1017.32 1017.24 1017.11 1016.94 1016.72 1016.47 1016.20 1015.93 1015.68 1015.45 1015.26 1015.08 1014.93 1014.78 1014.63 1014.46 1014.29 1014.11 1013.92 1013.75 1013.59
1009.88 1009.91 1010.07 1010.38 1010.81 1011.36 1011.99 1012.67 1013.36 1014.03 1014.64 1015.19 1015.65 1016.03 1016.33 1016.56 1016.75 1016.89 1017.01 1017.12 1017.20 1017.25 1017.28 1017.26 1017.19 1017.08 1016.92 1016.74 1016.55 1016.36 1016.18 1016.03 1015.90 1015.79 1015.69 1015.59 1015.47 1015.33 1015.17 1015.00 1014.83 1014.67 1014.52
1009.40 1009.31 1009.38 1009.61 1010.01 1010.55 1011.21 1011.95 1012.71 1013.46 1014.15 1014.75 1015.26 1015.68 1016.00 1016.26 1016.46 1016.64 1016.79 1016.93 1017.06 1017.17 1017.24 1017.27 1017.25 1017.19 1017.09 1016.96 1016.82 1016.69 1016.58 1016.49 1016.43 1016.39 1016.34 1016.29 1016.21 1016.10 1015.97 1015.81 1015.64 1015.48 1015.34
1009.18 1009.01 1009.00 1009.16 1009.52 1010.04 1010.71 1011.46 1012.26 1013.04 1013.76 1014.40 1014.93 1015.36 1015.69 1015.96 1016.19 1016.38 1016.57 1016.75 1016.92 1017.07 1017.18 1017.25 1017.27 1017.24 1017.17 1017.07 1016.97 1016.88 1016.82 1016.79 1016.78 1016.79 1016.80 1016.80 1016.76 1016.69 1016.57 1016.43 1016.26 1016.10 1015.96
1009.25 1009.02 1008.95 1009.06 1009.36 1009.85 1010.49 1011.23 1012.01 1012.79 1013.50 1014.12 1014.65 1015.07 1015.41 1015.68 1015.91 1016.13 1016.35 1016.56 1016.76 1016.94 1017.08 1017.18 1017.21 1017.20 1017.14 1017.07 1016.99 1016.92 1016.90 1016.90 1016.95 1017.01 1017.06 1017.10 1017.10 1017.06 1016.96 1016.83 1016.67 1016.51 1016.36
1009.53 1009.27 1009.16 1009.21 1009.47 1009.91 1010.50 1011.19 1011.93 1012.66 1013.33 1013.92 1014.41 1014.81 1015.13 1015.40 1015.64 1015.87 1016.11 1016.34 1016.57 1016.77 1016.93 1017.04 1017.09 1017.08 1017.03 1016.97 1016.90 1016.86 1016.86 1016.90 1016.97 1017.07 1017.17 1017.24 1017.28 1017.26 1017.18 1017.06 1016.90 1016.73 1016.58
1009.90 1009.63 1009.49 1009.52 1009.73 1010.11 1010.64 1011.26 1011.93 1012.59 1013.21 1013.74 1014.19 1014.56 1014.86 1015.12 1015.36 1015.60 1015.85 1016.10 1016.34 1016.55 1016.72 1016.84 1016.89 1016.89 1016.85 1016.80 1016.75 1016.73 1016.75 1016.82 1016.93 1017.06 1017.19 1017.29 1017.35 1017.35 1017.29 1017.17 1017.02 1016.85 1016.69
1010.21 1009.96 1009.82 1009.83 1010.01 1010.34 1010.80 1011.35 1011.95 1012.53 1013.07 1013.55 1013.95 1014.28 1014.57 1014.81 1015.06 1015.30 1015.56 1015.82 1016.07 1016.29 1016.46 1016.59 1016.65 1016.66 1016.64 1016.61 1016.58 1016.59 1016.65 1016.75 1016.89 1017.04 1017.19 1017.32 1017.39 1017.40 1017.35 1017.24 1017.09 1016.93 1016.77
1010.35 1010.14 1010.02 1010.04 1010.19 1010.49 1010.89 1011.38 1011.90 1012.41 1012.89 1013.31 1013.67 1013.98 1014.24 1014.49 1014.73 1014.98 1015.24 1015.51 1015.76 1015.98 1016.16 1016.29 1016.37 1016.41 1016.41 1016.41 1016.43 1016.48 1016.57 1016.70 1016.86 1017.04 1017.21 1017.34 1017.42 1017.44 1017.39 1017.29 1017.16 1017.00 1016.85
1010.28 1010.12 1010.05 1010.08 1010.24 1010.51 1010.87 1011.30 1011.76 1012.21 1012.63 1013.01 1013.34 1013.63 1013.89 1014.14 1014.39 1014.65 1014.91 1015.17 1015.42 1015.65 1015.83 1015.97 1016.07 1016.13 1016.18 1016.22 1016.28 1016.37 1016.50 1016.67 1016.86 1017.05 1017.23 1017.36 1017.45 1017.47 1017.43 1017.34 1017.21 1017.08 1016.95
1010.04 1009.94 1009.92 1009.98 1010.15 1010.40 1010.73 1011.12 1011.52 1011.93 1012.31 1012.66 1012.98 1013.26 1013.53 1013.78 1014.04 1014.30 1014.57 1014.82 1015.07 1015.29 1015.48 1015.63 1015.75 1015.84 1015.93 1016.02 1016.13 1016.27 1016.44 1016.64 1016.84 1017.04 1017.22 1017.35 1017.43 1017.45 1017.41 1017.33 1017.23 1017.12 1017.02
1009.72 1009.69 1009.72 1009.81 1009.99 1010.23 1010.53 1010.87 1011.24 1011.60 1011.96 1012.29 1012.60 1012.89 1013.16 1013.43 1013.70 1013.97 1014.23 1014.48 1014.72 1014.93 1015.12 1015.28 1015.42 1015.54 1015.66 1015.80 1015.95 1016.13 1016.34 1016.56 1016.78 1016.98 1017.15 1017.27 1017.33 1017.35 1017.32 1017.25 1017.18 1017.10 1017.04
Thickness
5616 5616 5615 5613 5612 5611 5611 5611 5611 5611 5612 5612 5613 5614 5615 5616 5617 5618 5619 5620 5622 5624 5627 5629 5631 5632 5633 5634 5635 5636 5638 5641 5643 5644 5646 5650 5653 5655 5657 5658 5658 5659 5659
5611 5610 5609 5607 5606 5605 5604 5604 5604 5604 5604 5604 5604 5605 5606 5607 5608 5608 5610 5611 5612 5614 5617 5619 5621 5623 5623 5624 5625 5626 5627 5630 5633 5633 5634 5636 5639 5645 5649 5650 5651 5653 5653
5607 5606 5604 5602 5600 5599 5598 5598 5597 5597 5597 5596 5597 5597 5598 5598 5598 5599 5600 5601 5602 5605 5607 5610 5612 5613 5614 5615 5616 5616 5617 5619 5621 5624 5625 5626 5630 5633 5638 5642 5644 5645 5645
5605 5602 5600 5598 5595 5594 5593 5592 5591 5590 5589 5589 5588 5587 5587 5587 5588 5589 5590 5592 5593 5596 5598 5600 5601 5603 5604 5606 5607 5607 5608 5609 5610 5613 5616 5619 5622 5621 5625 5629 5633 5635 5636
5601 5598 5596 5594 5591 5589 5586 5585 5584 5583 5582 5581 5580 5579 5579 5579 5579 5580 5581 5583 5584 5586 5588 5590 5591 5593 5594 5596 5598 5598 5599 5600 5601 5603 5605 5607 5611 5613 5613 5617 5620 5623 5626
5596 5594 5591 5588 5585 5582 5580 5578 5577 5576 5575 5574 5572 5571 5570 5570 5570 5570 5571 5573 5575 5577 5579 5580 5581 5583 5585 5586 5588 5589 5589 5591 5592 5594 5596 5598 5600 5603 5604 5606 5609 5611 5615
5590 5587 5584 5581 5578 5575 5573 5571 5570 5568 5567 5566 5564 5563 5562 5561 5561 5561 5562 5563 5565 5567 5569 5570 5571 5573 5574 5576 5577 5578 5579 5581 5582 5584 5586 5588 5591 5593 5594 5596 5598 5600 5604
5584 5582 5579 5575 5572 5569 5567 5564 5563 5561 5560 5558 5556 5555 5554 5553 5552 5553 5553 5553 5555 5557 5559 5560 5561 5562 5564 5565 5567 5567 5569 5570 5572 5574 5575 5577 5580 5581 5583 5584 5585 5587 5591
5579 5576 5573 5569 5566 5563 5560 5558 5556 5554 5552 5550 5548 5547 5546 5544 5544 5544 5544 5544 5546 5547 5549 5550 5551 5553 5554 5555 5556 5557 5559 5560 5562 5563 5564 5566 5569 5570 5572 5573 5574 5575 5579
5572 5570 5566 5563 5560 5556 5553 5551 5548 5547 5544 5542 5540 5539 5537 5536 5536 5535 5535 5536 5536 5538 5539 5540 5541 5542 5543 5544 5545 5547 5549 5549 5551 5552 5553 5555 5557 5559 5561 5562 5564 5565 5566
5565 5563 5560 5557 5553 5550 5546 5543 5541 5539 5537 5535 5533 5531 5529 5528 5527 5527 5527 5527 5527 5528 5529 5530 5531 5531 5532 5533 5534 5535 5537 5538 5539 5541 5543 5545 5546 5548 5550 5551 5552 5553 5554
5560 5557 5554 5550 5546 5542 5539 5536 5533 5531 5529 5527 5524 5522 5521 5520 5519 5518 5518 5518 5518 5519 5519 5519 5520 5521 5521 5522 5522 5524 5525 5526 5527 5529 5531 5534 5535 5536 5538 5539 5540 5541 5543
5554 5550 5546 5543 5539 5535 5532 5529 5526 5523 5521 5518 5516 5514 5512 5511 5510 5509 5509 5509 5509 5510 5509 5509 5509 5510 5511 5511 5512 5513 5514 5515 5515 5517 5519 5521 5523 5525 5526 5528 5528 5529 5531
5546 5543 5539 5536 5532 5529 5526 5522 5519 5516 5513 5510 5507 5505 5504 5503 5502 5501 5501 5501 5501 5501 5500 5500 5500 5501 5501 5502 5503 5504 5504 5505 5506 5506 5508 5509 5511 5513 5515 5516 5517 5518 5519
5540 5536 5532 5528 5525 5522 5519 5515 5511 5508 5505 5502 5499 5497 5496 5494 5494 5493 5493 5493 5493 5492 5491 5491 5491 5492 5493 5493 5494 5494 5495 5495 5496 5496 5497 5498 5499 5501 5502 5504 5505 5506 5507
5532 5529 5525 5522 5518 5515 5512 5508 5504 5501 5497 5494 5491 5489 5487 5486 5485 5484 5484 5485 5484 5484 5483 5483 5482 5483 5484 5485 5486 5485 5485 5485 5486 5486 5487 5488 5488 5489 5490 5492 5494 5494 5495
5524 5521 5517 5514 5511 5508 5505 5501 5497 5493 5489 5486 5483 5481 5479 5478 5477 5477 5476 5476 5476 5475 5475 5474 5473 5474 5474 5475 5476 5476 5475 5475 5475 5476 5476 5477 5478 5478 5478 5480 5481 5481 5482
5515 5513 5509 5507 5503 5501 5498 5494 5490 5486 5482 5478 5476 5474 5472 5470 5470 5469 5468 5468 5467 5466 5466 5465 5464 5464 5465 5466 5467 5467 5466 5465 5465 5465 5466 5466 5467 5467 5468 5468 5469 5469 5469
5506 5503 5501 5498 5496 5493 5490 5486 5481 5478 5474 5471 5469 5467 5465 5463 5462 5461 5461 5461 5460 5459 5458 5457 5456 5455 5456 5457 5457 5457 5456 5456 5455 5455 5455 5456 5456 5457 5457 5457 5457 5457 5457
5497 5495 5493 5490 5487 5484 5481 5477 5474 5470 5467 5465 5463 5460 5459 5457 5455 5455 5454 5454 5453 5452 5450 5449 5448 5447 5447 5448 5448 5448 5446 5446 5445 5445 5446 5446 5446 5447 5447 5447 5447 5447 5447
5490 5488 5485 5481 5479 5477 5473 5470 5467 5464 5463 5460 5457 5454 5452 5450 5449 5448 5447 5447 5445 5444 5442 5441 5440 5439 5439 5439 5439 5438 5436 5436 5436 5436 5436 5437 5437 5437 5438 5438 5437 5437 5437
5481 5479 5476 5474 5472 5470 5466 5463 5461 5459 5456 5453 5450 5448 5445 5444 5443 5440 5440 5439 5438 5435 5434 5433 5431 5431 5431 5430 5430 5429 5428 5427 5426 5426 5427 5427 5427 5428 5428 5428 5428 5427 5426
5473 5471 5468 5466 5465 5463 5460 5457 5455 5452 5450 5447 5444 5441 5439 5437 5436 5434 5432 5432 5430 5428 5426 5425 5424 5423 5422 5422 5421 5420 5419 5419 5418 5418 5418 5418 5418 5418 5418 5418 5417 5416 5415
5465 5463 5461 5459 5457 5456 5454 5452 5449 5446 5443 5440 5437 5435 5432 5430 5429 5427 5426 5424 5423 5421 5420 5419 5417 5416 5415 5414 5413 5412 5411 5411 5410 5409 5409 5409 5408 5408 5407 5407 5406 5405 5403
5456 5455 5453 5452 5451 5450 5448 5446 5443 5439 5435 5433 5430 5428 5426 5424 5423 5421 5419 5419 5418 5416 5415 5413 5411 5409 5407 5407 5407 5404 5403 5402 5401 5400 5399 5398 5397 5396 5396 5395 5394 5392 5390
5448 5446 5445 5444 5444 5443 5441 5439 5437 5433 5429 5426 5424 5422 5420 5418 5416 5414 5412 5412 5411 5410 5409 5407 5405 5403 5402 5400 5399 5398 5396 5394 5393 5391 5389 5388 5386 5386 5385 5384 5382 5380 5378